DMSP 5D-2 F11 DEB

基本信息
目录编号:
29069
目录名称:
DMSP 5D-2 F11 DEB
国际标识:
1991-082BQ
轨道中心:
EARTH
物体状态:
在轨
发射日期:
1991-11-28 UTC
轨道信息
数据来源: 国际轨道数据
星历时间: 2026-09-09T19:22:00+0800
半长轴: 7122.376km
偏心率: 0.0062814
轨道倾角: 98.909°
近地点辐角: 123.751°
升交点赤经: 335.934°
平近点角: 299.663°
近地点: 699.5km
远地点: 788.978km
周期: 99.700分钟
每日圈数: 14.443267
详细信息
发射场:
AFWTR
轨道高度:
LEO
数据来源:
AOE Integration Group
参考系:
TEME
时间系统:
UTC
历元类型:
SGP4
2D轨道图
3D轨道图
轨道高度分析图
轨道倾角分析图
轨道综合分析图
查看轨道综合分析图